sat.trackr.live / text

‹ back to catalog

STARLINK-31229

NORAD 58986 · 2024-031X

PAYLOAD ACTIVE UNKNOWN

§ Identity

Operator
Country
US
Launch date
2024-02-15
Launch site
AFWTR
Launch vehicle
Mass (kg)
RCS (m²)

Purposes: comms

External: N2YO · Heavens-Above · Gunter

§ Orbital elements

Epoch: 2026-05-25T03:26:35.446848Z

Period
94.11 min
Inclination
53.1615°
Eccentricity
0.0001261
Mean motion
15.30184948 rev/d
Perigee alt
474.4 km
Apogee alt
476.1 km
Semi-major
6,853.4 km
B*
6.2856e-5
RAAN
301.9220°
Arg perigee
98.7355°
Mean anomaly
261.3788°
Rev number
12,821

§ Raw data

STARLINK-312291 58986U 24031X   26145.14346582  .00001502  00000+0  62856-4 0  99952 58986  53.1615 301.9220 0001261  98.7355 261.3788 15.30184948128215

JSON: /api/v1/satellites/58986 · /tle

For live sub-satellite position, see the globe view (requires WebGL).

§ Visibility from observer

Set your observer location to see the next 7 days of passes ≥ 10°. The values pass through the URL so the page stays shareable.

No JS? Fill the form by hand. The geolocation button needs JavaScript.